Location: Kermapucano
(48.0667°N, 3.3000°W)
Time: 20:56:25
(UTC+00:00)

Cosmos 1844 Rocket - Pass Details

Date: 29 November 2020
Orbit: 824 x 845 km, 71.0° (Epoch: 27 January)

Event Time Altitude Azimuth Distance (km) Brightness Sun altitude
Rises 05:52:40 0° 206° (SSW) 3,375 5.7 -17.3°
Reaches altitude 10° 05:55:05 10° 206° (SSW) 2,448 5.0 -16.9°
Maximum altitude 06:00:43 89° 297° (WNW) 849 2.7 -16.0°
Drops below altitude 10° 06:06:25 10° 28° (NNE) 2,474 5.3 -15.1°
Sets 06:08:53 0° 28° (NNE) 3,414 6.0 -14.7°
